カタログに戻る

THORAD DELTA 1 DEB

運用中LEO
NORAD 9699·DEBRIS·🇺🇸 United States

打ち上げ Nov 15, 1974 から Vandenberg Space Force Base

Loading…

次のパス (今後24時間)

TLE

最新Source: Space-Track

元期: Sep 13, 2026, 19:10 UTC

1 09699U 74089DY  26256.79919698 -.00000030  00000-0  93785-4 0  9990
2 09699 101.6463   3.7377 0124306 151.4577   0.5698 12.29332720328360

AllMySatでTHORAD DELTA 1 DEBをリアルタイム追跡

Download on the App Store